Location: Wheeling
(40.0640°N, 80.7210°W)
Time: 13:24:48
(UTC-05:00)

CUTE 1.7 + AOD 2 - Pass Details

Date: 30 October 2021
Orbit: 592 x 610 km, 97.6° (Epoch: 30 November)

Event Time Altitude Azimuth Distance (km) Brightness Sun altitude
Rises 06:43:14 0° 354° (N) 2,880 ? -13.3°
Reaches altitude 10° 06:46:04 10° 334° (NNW) 1,968 ? -12.8°
Enters shadow 06:48:36 17° 297° (WNW) 1,574 ? -12.3°
